| time (UTC) | temp F | wind direction | speed knots | gust knots | rain 1hr in | rain 24hr in | rain mn in | humidity % | barometer mb |
| 20260504015038 | 75 | 43 | 6.1 | 8.7 | 0.00 | 0.00 | 0.00 | 69 | 1015.2 |
| 20260504014536 | 75 | 51 | 7.8 | 12.2 | 0.00 | 0.00 | 0.00 | 68 | 1015.3 |
| 20260504014033 | 76 | 51 | 7.8 | 11.3 | 0.00 | 0.00 | 0.00 | 65 | 1015.3 |
| 20260504013532 | 76 | 55 | 8.7 | 11.3 | 0.00 | 0.00 | 0.00 | 68 | 1015.4 |
| 20260504012527 | 76 | 62 | 10.4 | 13.0 | 0.00 | 0.00 | 0.00 | 65 | 1015.5 |
| 20260504012026 | 76 | 54 | 9.6 | 13.0 | 0.00 | 0.00 | 0.00 | 65 | 1015.5 |
| 20260504011022 | 75 | 42 | 6.1 | 10.4 | 0.00 | 0.00 | 0.00 | 66 | 1015.6 |
| 20260504010519 | 76 | 49 | 7.0 | 10.4 | 0.00 | 0.00 | 0.00 | 65 | 1015.7 |
| 20260504010017 | 77 | 41 | 5.2 | 7.8 | 0.00 | 0.00 | 0.00 | 63 | 1015.6 |
| 20260504005515 | 77 | 30 | 5.2 | 9.6 | 0.00 | 0.00 | 0.00 | 60 | 1015.7 |
| 20260504005014 | 77 | 37 | 5.2 | 7.8 | 0.00 | 0.00 | 0.00 | 60 | 1015.8 |
| 20260504004513 | 77 | 36 | 4.3 | 7.0 | 0.00 | 0.00 | 0.00 | 61 | 1015.8 |
| 20260504003004 | 75 | 26 | 6.1 | 9.6 | 0.00 | 0.00 | 0.00 | 65 | 1015.9 |
| 20260504002502 | 75 | 21 | 5.2 | 9.6 | 0.00 | 0.00 | 0.00 | 63 | 1016.0 |
| 20260504002000 | 75 | 35 | 4.3 | 7.0 | 0.00 | 0.00 | 0.00 | 66 | 1016.0 |
| 20260504001459 | 74 | 23 | 5.2 | 9.6 | 0.00 | 0.00 | 0.00 | 65 | 1016.1 |
| 20260504000955 | 74 | 33 | 5.2 | 10.4 | 0.00 | 0.00 | 0.00 | 66 | 1016.2 |
| 20260504000453 | 74 | 27 | 5.2 | 7.0 | 0.00 | 0.00 | 0.00 | 67 | 1016.1 |
| 20260503235952 | 73 | 26 | 5.2 | 7.8 | 0.00 | 0.00 | 0.00 | 67 | 1016.1 |
| 20260503235449 | 73 | 26 | 5.2 | 8.7 | 0.00 | 0.00 | 0.00 | 68 | 1016.1 |
| 20260503234946 | 73 | 26 | 4.3 | 7.0 | 0.00 | 0.00 | 0.00 | 69 | 1016.2 |
| 20260503234444 | 72 | 21 | 6.1 | 7.8 | 0.00 | 0.00 | 0.00 | 73 | 1016.2 |
| 20260503233943 | 72 | 32 | 6.1 | 7.8 | 0.00 | 0.00 | 0.00 | 75 | 1016.2 |
| 20260503232937 | 70 | 27 | 6.1 | 9.6 | 0.00 | 0.00 | 0.00 | 78 | 1016.2 |
| 20260503232436 | 70 | 24 | 7.0 | 9.6 | 0.00 | 0.00 | 0.00 | 79 | 1016.2 |
| 20260503231431 | 70 | 23 | 7.8 | 11.3 | 0.00 | 0.00 | 0.00 | 80 | 1016.1 |
| 20260503230929 | 70 | 25 | 8.7 | 11.3 | 0.00 | 0.00 | 0.00 | 80 | 1016.1 |
| 20260503230428 | 70 | 26 | 8.7 | 12.2 | 0.00 | 0.00 | 0.00 | 79 | 1016.1 |
| 20260503225927 | 70 | 28 | 7.8 | 13.0 | 0.00 | 0.00 | 0.00 | 80 | 1016.1 |
| 20260503225425 | 70 | 29 | 7.8 | 11.3 | 0.00 | 0.00 | 0.00 | 82 | 1016.0 |
| 20260503224418 | 70 | 31 | 7.8 | 13.0 | 0.00 | 0.00 | 0.00 | 82 | 1016.0 |
| 20260503222407 | 69 | 31 | 8.7 | 13.9 | 0.00 | 0.00 | 0.00 | 84 | 1016.0 |
| 20260503221906 | 69 | 29 | 8.7 | 11.3 | 0.00 | 0.00 | 0.00 | 85 | 1016.0 |
| 20260503221404 | 68 | 30 | 7.8 | 11.3 | 0.00 | 0.00 | 0.00 | 86 | 1016.1 |
| 20260503220903 | 68 | 31 | 8.7 | 15.6 | 0.00 | 0.00 | 0.00 | 86 | 1016.1 |
| 20260503220402 | 68 | 31 | 8.7 | 13.9 | 0.00 | 0.00 | 0.00 | 86 | 1016.0 |
| 20260503215357 | 68 | 32 | 8.7 | 12.2 | 0.00 | 0.00 | 0.00 | 86 | 1015.9 |
| 20260503214855 | 68 | 31 | 8.7 | 14.8 | 0.00 | 0.00 | 0.00 | 86 | 1015.9 |
| 20260503214353 | 68 | 32 | 8.7 | 14.8 | 0.00 | 0.00 | 0.00 | 86 | 1015.8 |
| 20260503212845 | 68 | 32 | 8.7 | 11.3 | 0.00 | 0.00 | 0.00 | 86 | 1015.8 |
| 20260503212344 | 67 | 33 | 9.6 | 16.5 | 0.00 | 0.00 | 0.00 | 86 | 1015.8 |
| 20260503211842 | 67 | 33 | 8.7 | 11.3 | 0.00 | 0.00 | 0.00 | 85 | 1015.8 |
| 20260503211340 | 67 | 29 | 10.4 | 14.8 | 0.00 | 0.00 | 0.00 | 84 | 1015.7 |
| 20260503210838 | 67 | 27 | 11.3 | 14.8 | 0.00 | 0.00 | 0.00 | 84 | 1015.6 |
| 20260503210336 | 67 | 31 | 10.4 | 13.0 | 0.00 | 0.00 | 0.00 | 84 | 1015.6 |
| 20260503205835 | 67 | 32 | 8.7 | 11.3 | 0.00 | 0.00 | 0.00 | 86 | 1015.5 |
| 20260503204830 | 67 | 36 | 7.8 | 12.2 | 0.00 | 0.00 | 0.00 | 86 | 1015.5 |
| 20260503204329 | 67 | 32 | 7.8 | 9.6 | 0.00 | 0.00 | 0.00 | 86 | 1015.5 |
| 20260503203323 | 66 | 37 | 7.0 | 9.6 | 0.00 | 0.00 | 0.00 | 85 | 1015.4 |
| 20260503202823 | 66 | 34 | 6.1 | 9.6 | 0.00 | 0.00 | 0.00 | 85 | 1015.4 |
| 20260503202320 | 66 | 35 | 6.1 | 9.6 | 0.00 | 0.00 | 0.00 | 85 | 1015.3 |
| 20260503201819 | 66 | 36 | 6.1 | 7.8 | 0.00 | 0.00 | 0.00 | 86 | 1015.3 |
| 20260503201317 | 66 | 34 | 6.1 | 7.8 | 0.00 | 0.00 | 0.00 | 87 | 1015.2 |
| 20260503200816 | 66 | 30 | 6.1 | 8.7 | 0.00 | 0.00 | 0.00 | 86 | 1015.2 |
| 20260503200314 | 66 | 24 | 6.1 | 8.7 | 0.00 | 0.00 | 0.00 | 87 | 1015.1 |
| 20260503195813 | 65 | 25 | 6.1 | 7.8 | 0.00 | 0.00 | 0.00 | 87 | 1015.2 |
| 20260503195312 | 65 | 26 | 5.2 | 8.7 | 0.00 | 0.00 | 0.00 | 88 | 1015.2 |
| 20260503194306 | 65 | 15 | 6.1 | 9.6 | 0.00 | 0.00 | 0.00 | 89 | 1015.0 |
| 20260503193804 | 65 | 13 | 6.1 | 7.8 | 0.00 | 0.00 | 0.00 | 88 | 1014.9 |
| 20260503193302 | 65 | 20 | 5.2 | 8.7 | 0.00 | 0.00 | 0.00 | 87 | 1014.8 |
| 20260503192800 | 66 | 25 | 5.2 | 7.0 | 0.00 | 0.00 | 0.00 | 87 | 1014.8 |
| 20260503192259 | 66 | 23 | 6.1 | 7.8 | 0.00 | 0.00 | 0.00 | 87 | 1014.8 |
| 20260503191758 | 66 | 28 | 6.1 | 7.8 | 0.00 | 0.00 | 0.00 | 87 | 1014.7 |
| 20260503191257 | 66 | 30 | 5.2 | 7.0 | 0.00 | 0.00 | 0.00 | 88 | 1014.7 |
| 20260503190755 | 66 | 35 | 5.2 | 7.8 | 0.00 | 0.00 | 0.00 | 88 | 1014.7 |
| 20260503190254 | 66 | 38 | 4.3 | 6.1 | 0.00 | 0.00 | 0.00 | 87 | 1014.7 |
| 20260503185753 | 66 | 33 | 4.3 | 6.1 | 0.00 | 0.00 | 0.00 | 87 | 1014.6 |
| 20260503184748 | 66 | 23 | 4.3 | 5.2 | 0.00 | 0.00 | 0.00 | 86 | 1014.6 |
| 20260503184245 | 66 | 26 | 4.3 | 7.0 | 0.00 | 0.00 | 0.00 | 86 | 1014.6 |
| 20260503183744 | 66 | 22 | 4.3 | 7.0 | 0.00 | 0.00 | 0.00 | 86 | 1014.6 |
| 20260503182235 | 66 | 25 | 4.3 | 7.0 | 0.00 | 0.00 | 0.00 | 86 | 1014.6 |
| 20260503181733 | 66 | 27 | 5.2 | 8.7 | 0.00 | 0.00 | 0.00 | 87 | 1014.6 |
| 20260503181232 | 67 | 34 | 4.3 | 7.8 | 0.00 | 0.00 | 0.00 | 87 | 1014.6 |
| 20260503180227 | 67 | 29 | 5.2 | 9.6 | 0.00 | 0.00 | 0.00 | 84 | 1014.6 |
| 20260503174718 | 67 | 29 | 5.2 | 8.7 | 0.00 | 0.00 | 0.00 | 84 | 1014.7 |
| 20260503174214 | 67 | 34 | 4.3 | 7.0 | 0.00 | 0.00 | 0.00 | 84 | 1014.7 |
| 20260503173713 | 67 | 26 | 4.3 | 8.7 | 0.00 | 0.00 | 0.00 | 83 | 1014.8 |
| 20260503173211 | 67 | 26 | 5.2 | 10.4 | 0.00 | 0.00 | 0.00 | 83 | 1014.7 |
| 20260503172710 | 67 | 22 | 6.1 | 9.6 | 0.00 | 0.00 | 0.00 | 83 | 1014.8 |
| 20260503172209 | 67 | 16 | 6.1 | 8.7 | 0.00 | 0.00 | 0.00 | 83 | 1014.7 |
| 20260503171204 | 67 | 34 | 5.2 | 8.7 | 0.00 | 0.00 | 0.00 | 85 | 1014.8 |
| 20260503170703 | 66 | 37 | 4.3 | 7.0 | 0.00 | 0.00 | 0.00 | 85 | 1014.9 |
| 20260503170201 | 66 | 35 | 5.2 | 7.8 | 0.00 | 0.00 | 0.00 | 85 | 1014.9 |
| 20260503160126 | 66 | 21 | 4.3 | 8.7 | 0.00 | 0.00 | 0.00 | 86 | 1015.4 |
| 20260503150605 | 67 | 22 | 7.0 | 11.3 | 0.00 | 0.00 | 0.00 | 85 | 1015.8 |
| 20260503150104 | 67 | 21 | 7.0 | 11.3 | 0.00 | 0.00 | 0.00 | 85 | 1015.9 |
| 20260503131017 | 68 | 17 | 7.8 | 12.2 | 0.00 | 0.00 | 0.00 | 86 | 1017.1 |
| 20260503110423 | 68 | 8 | 8.7 | 13.9 | 0.00 | 0.00 | 0.00 | 86 | 1018.1 |
| 20260503090335 | 69 | 19 | 9.6 | 13.9 | 0.00 | 0.00 | 0.00 | 86 | 1017.6 |
| 20260503081317 | 69 | 15 | 9.6 | 14.8 | 0.00 | 0.00 | 0.00 | 83 | 1017.4 |
| 20260503080816 | 70 | 21 | 9.6 | 13.0 | 0.00 | 0.00 | 0.00 | 82 | 1017.4 |
| 20260503072759 | 70 | 24 | 10.4 | 15.6 | 0.00 | 0.00 | 0.00 | 81 | 1017.3 |
| 20260503072256 | 70 | 28 | 10.4 | 14.8 | 0.00 | 0.00 | 0.00 | 81 | 1017.3 |
| 20260503071251 | 71 | 29 | 10.4 | 14.8 | 0.00 | 0.00 | 0.00 | 81 | 1017.2 |
| 20260503070750 | 71 | 31 | 11.3 | 16.5 | 0.00 | 0.00 | 0.00 | 80 | 1017.1 |
| 20260503070248 | 71 | 30 | 13.0 | 16.5 | 0.00 | 0.00 | 0.00 | 79 | 1017.2 |
| 20260503060224 | 72 | 34 | 10.4 | 13.9 | 0.00 | 0.00 | 0.00 | 74 | 1017.3 |
| 20260503054217 | 73 | 41 | 11.3 | 16.5 | 0.00 | 0.00 | 0.00 | 75 | 1017.4 |
| 20260503053212 | 73 | 44 | 12.2 | 18.2 | 0.00 | 0.00 | 0.00 | 74 | 1017.5 |
| 20260503052711 | 73 | 48 | 13.0 | 20.0 | 0.00 | 0.00 | 0.00 | 74 | 1017.5 |
| 20260503052210 | 73 | 45 | 11.3 | 18.2 | 0.00 | 0.00 | 0.00 | 74 | 1017.6 |
| 20260503051708 | 73 | 46 | 12.2 | 16.5 | 0.00 | 0.00 | 0.00 | 74 | 1017.5 |
| 20260503051207 | 73 | 44 | 11.3 | 17.4 | 0.00 | 0.00 | 0.00 | 74 | 1017.5 |
| 20260503050706 | 73 | 46 | 13.0 | 17.4 | 0.00 | 0.00 | 0.00 | 74 | 1017.6 |
| 20260503045700 | 73 | 43 | 10.4 | 17.4 | 0.00 | 0.00 | 0.00 | 73 | 1017.6 |
| 20260503044656 | 73 | 46 | 12.2 | 18.2 | 0.00 | 0.00 | 0.00 | 72 | 1017.6 |
| 20260503044154 | 73 | 50 | 13.0 | 19.1 | 0.00 | 0.00 | 0.00 | 72 | 1017.6 |
| 20260503043652 | 73 | 48 | 13.0 | 19.1 | 0.00 | 0.00 | 0.00 | 71 | 1017.6 |
| 20260503043151 | 73 | 49 | 13.9 | 21.7 | 0.00 | 0.00 | 0.00 | 70 | 1017.7 |
| 20260503042649 | 73 | 49 | 13.9 | 20.0 | 0.00 | 0.00 | 0.00 | 72 | 1017.8 |
| 20260503042148 | 73 | 49 | 13.9 | 20.9 | 0.00 | 0.00 | 0.00 | 71 | 1017.7 |
| 20260503041647 | 73 | 46 | 12.2 | 17.4 | 0.00 | 0.00 | 0.00 | 70 | 1017.7 |
| 20260503041146 | 74 | 36 | 9.6 | 13.9 | 0.00 | 0.00 | 0.00 | 65 | 1017.7 |
| 20260503040643 | 74 | 40 | 9.6 | 13.9 | 0.00 | 0.00 | 0.00 | 66 | 1017.7 |
| 20260503040142 | 74 | 48 | 13.0 | 20.9 | 0.00 | 0.00 | 0.00 | 66 | 1017.7 |
| 20260503035641 | 75 | 46 | 12.2 | 19.1 | 0.00 | 0.00 | 0.00 | 65 | 1017.8 |
| 20260503034634 | 75 | 39 | 9.6 | 13.0 | 0.00 | 0.00 | 0.00 | 62 | 1017.9 |
| 20260503034132 | 75 | 37 | 9.6 | 12.2 | 0.00 | 0.00 | 0.00 | 63 | 1017.9 |
| 20260503033631 | 75 | 41 | 9.6 | 15.6 | 0.00 | 0.00 | 0.00 | 62 | 1017.9 |
| 20260503033130 | 75 | 42 | 9.6 | 13.9 | 0.00 | 0.00 | 0.00 | 65 | 1018.0 |
| 20260503032628 | 75 | 42 | 10.4 | 15.6 | 0.00 | 0.00 | 0.00 | 64 | 1018.0 |
| 20260503032126 | 75 | 42 | 9.6 | 13.9 | 0.00 | 0.00 | 0.00 | 66 | 1018.1 |
| 20260503031121 | 75 | 37 | 9.6 | 13.0 | 0.00 | 0.00 | 0.00 | 63 | 1018.3 |
| 20260503030620 | 74 | 38 | 9.6 | 13.9 | 0.00 | 0.00 | 0.00 | 65 | 1018.3 |
| 20260503025614 | 74 | 40 | 8.7 | 12.2 | 0.00 | 0.00 | 0.00 | 67 | 1018.4 |
| 20260503025113 | 74 | 38 | 9.6 | 14.8 | 0.00 | 0.00 | 0.00 | 68 | 1018.5 |
| 20260503024611 | 74 | 44 | 10.4 | 14.8 | 0.00 | 0.00 | 0.00 | 65 | 1018.6 |
| 20260503022559 | 75 | 47 | 11.3 | 15.6 | 0.00 | 0.00 | 0.00 | 64 | 1018.9 |
| 20260503021555 | 74 | 38 | 8.7 | 12.2 | 0.00 | 0.00 | 0.00 | 64 | 1019.2 |
| 20260503021053 | 74 | 33 | 8.7 | 12.2 | 0.00 | 0.00 | 0.00 | 65 | 1019.4 |
| 20260503020048 | 74 | 33 | 9.6 | 12.2 | 0.00 | 0.00 | 0.00 | 65 | 1019.3 |